Flag for France Weather past 2 weeks in Marigot, Saint Martin, France

Now
75 °F

Scattered showers. Partly sunny.


Feels Like: 77 °F
Forecast: 75 / 82 °F
Wind: 7 mph from Northeast

Location: Juliana Airport - Saint Maarten

Current Time: Dec 18, 2014 at 7:30:33 AM

Latest Report: Dec 18, 2014 at 7:00 AM


Visibility: N/A

Pressure: 29.98 "Hg

Humidity: 74%

Dew point: 66 °F

Location of MarigotLocation

Historic Weather in Marigot — Graph

°F

Marigot temperature yesterday

Maximum temperature yesterday: 84 °F (at 11:00 AM)
Minimum temperature yesterday: 75 °F (at 4:00 AM)
Average temperature yesterday: 80 °F

Past Weeks' High & Low Weather Summary

 TemperatureHumidityPressure
High86 °F (Dec 14, 12:00 PM)94% (Dec 16, 6:00 PM)30.07 "Hg (Dec 16, 6:00 PM)
Low73 °F (Dec 18, 4:00 AM)62% (Dec 7, 9:00 AM)29.80 "Hg (Dec 6, 2:00 PM)
Average80 °F76%29.94 "Hg
* Reported Dec 3 6:00 AM — Dec 18 6:00 AM, Marigot, Weather by CustomWeather, © 2014

Note: Actual official high and low records may vary slightly from our data, if they occured in-between our weather recording intervals... More about our weather records

Advertising

Marigot weather history for previous 24 hours

 ConditionsComfort  
Time TempWeatherWind HumidityBarometerVisibility
6:00 AM
Dec 18
73 °FPassing clouds.15 mph83%29.98 "HgN/A
5:00 AM73 °FPassing clouds.1 mph89%29.98 "HgN/A
4:00 AM73 °FLight rain. Passing clouds.7 mph83%29.98 "Hg4 mi
3:00 AM77 °FScattered showers. Partly cloudy.10 mph69%29.95 "HgN/A
2:00 AM77 °FPassing clouds.7 mph79%29.98 "HgN/A
1:00 AM77 °FPassing clouds.8 mph79%29.98 "HgN/A
12:00 AM77 °FPassing clouds.8 mph79%30.01 "HgN/A
11:00 PM
Dec 17
77 °FPassing clouds.8 mph83%30.01 "HgN/A
10:00 PM79 °FPassing clouds.10 mph74%30.04 "HgN/A
9:00 PM79 °FPassing clouds.10 mph79%30.04 "HgN/A
8:00 PM79 °FPassing clouds.10 mph79%30.01 "HgN/A
7:00 PM79 °FPassing clouds.12 mph79%29.98 "HgN/A
6:00 PM79 °FPassing clouds.9 mph79%29.98 "HgN/A
5:00 PM81 °FScattered clouds.8 mph74%29.98 "HgN/A
4:00 PM82 °FScattered clouds.9 mph70%29.95 "HgN/A
3:00 PM82 °FScattered clouds.10 mph70%29.95 "HgN/A
2:00 PM82 °FScattered clouds.10 mph70%29.95 "HgN/A
1:00 PM82 °FScattered clouds.10 mph74%29.98 "HgN/A
12:00 PM82 °FPassing clouds.10 mph74%30.01 "HgN/A
11:00 AM84 °FScattered clouds.9 mph66%30.04 "HgN/A
10:00 AM82 °FPassing clouds.12 mph70%30.07 "HgN/A
9:00 AM81 °FPassing clouds.9 mph79%30.04 "HgN/A
8:00 AM81 °FPassing clouds.7 mph79%30.04 "HgN/A
7:00 AM77 °FPassing clouds.3 mph89%30.01 "HgN/A
Weather by CustomWeather, © 2014

See weather overviewHow to use our weather pages